Regional Weather Roundup
Issued by NWS Green Bay, WI

Home | Current Version | Previous Version | Graphics & Text | Print | Product List | Glossary Off
Versions: 1 2 3 4 5 6 7 8 9 10 11 12 13 14 15 16 17 18 19 20 21 22 23 24 25 26 27 28 29 30 31 32 33 34 35 36 37 38 39 40 41 42 43 44 45 46 47 48 49 50

000
ASUS43 KGRB 252159
RWRGRB

NORTH-CENTRAL AND NORTHEAST WISCONSIN REGIONAL WEATHER ROUNDUP
NATIONAL WEATHER SERVICE GREEN BAY WI
500 PM CDT FRI JUL 25 2014

WIZ005-009-010>012-018-019-252300-
NORTH CENTRAL WISCONSIN

CITY           SKY/WX    TMP DP  RH WIND       PRES   REMARKS
IRONWOOD       NOT AVBL
MANITOWISH WTR NOT AVBL
ARBOR VITAE    NOT AVBL
EAGLE RIVER    NOT AVBL
LAND O LAKES   NOT AVBL
RHINELANDER    CLOUDY    66  61  84 SW10      29.88S
PHILLIPS       CLOUDY    67  63  87 SW9       29.86S
ANTIGO         NOT AVBL
TOMAHAWK       CLOUDY    65  61  86 S3        29.89R
MERRILL        NOT AVBL
$$

WIZ013-073-252300-
NORTHEAST WISCONSIN

CITY           SKY/WX    TMP DP  RH WIND       PRES   REMARKS
IRON MOUNTAIN  CLOUDY    70  60  70 SW9       29.85S
MARINETTE      CLOUDY    70  57  64 SW14      29.87R
$$

WIZ017-030-035>037-045-252300-
CENTRAL WISCONSIN

CITY           SKY/WX    TMP DP  RH WIND       PRES   REMARKS
MEDFORD        NOT AVBL
WAUSAU         CLOUDY    67  61  81 SW8       29.87F
MOSINEE        CLOUDY    66  63  88 SW7       29.90F
MARSHFIELD     CLOUDY    68  62  81 S8        29.88F
WISC RAPIDS    CLOUDY    70  61  73 SW9       29.90F
STEVENS POINT  NOT AVBL
WAUPACA        CLOUDY    72  60  65 SW10      29.90S
SHAWANO        CLOUDY    71  60  69 CALM      29.89S
CLINTONVILLE   CLOUDY    70  59  68 SW8       29.89S
$$

WIZ038-039-048-051-252300-
FOX VALLEY

CITY           SKY/WX    TMP DP  RH WIND       PRES   REMARKS
NWS GREEN BAY  CLOUDY    72  60  66 S14G22    29.89S
APPLETON       CLOUDY    72  57  60 SW13      29.90F
OSHKOSH        PTSUNNY   72  61  68 SW12G20   29.89F
FOND DU LAC    PTSUNNY   72  59  63 SW14      29.91F
$$

WIZ022-050-052-252300-
EAST CENTRAL WISCONSIN

CITY           SKY/WX    TMP DP  RH WIND       PRES   REMARKS
STURGEON BAY   CLOUDY    68  57  68 S7        29.90S
MANITOWOC      NOT AVBL
SHEBOYGAN      MOSUNNY   73  60  63 SW12      29.91F
$$

LMZ563-521-522-541>543-252300-
LAKESHORE

STATION/POSITION TIME  TEMP    WIND        PRES    VSBY  WAVE
                       AIR SEA DIR/SP/G                  HT/PER
                 (UTC) (F)     (DEG/KT/KT) (MB)    (MI)  (FT/S)
SHEBOYGAN LKSHOR 2100   67     170/  8/  9 1013.6F
KEWAUNEE LKSHORE 2100   56     170/ 11/ 16 1013.3F
TWO RIVERS CG    2100   58                   N/A       6   2
NORTHPORT PIER   2100   66     170/  5/ 11 1011.9F
N MID LAKE BUOY  2100   59 56  190/ 14/ 16 1011.8F         3/ 5
STURGEON BAY CG  2100   55 48  180/  9     1012.4      6   2
CHAMBERS ISLAND  2100   70     190/  8/ 16 1011.5S
MENOMINEE LKSHOR 2100   70     200/ 13/ 17 1012.5R
$$



USA.gov is the U.S. government's official web portal to all federal, state and local government web resources and services.